STARLINK-32577, 62044

Orbit data source: Space-Track

STARLINK-32577, 62044 is a payload satellite owned by SpaceX/Seattle (US) in LEO that was launched on Thu, 21 Nov 2024 UTC via an FALCON 9 launch vehicle from the Air Force Eastern Test Range (AFETR). Payloads include a variety of satellites, spacecraft, and rockets equipped with specific instruments for various scientific and technological missions. These include communications satellites like Starlink; space stations such as the ISS; scientific satellites like the Hubble; Earth observation satellites from companies like Planet Labs, Umbra, and HawkEye 360; GPS; miniature CubeSats for education and research; and military/defense satellites.

Loading next visibility...
STARLINK-32577 details
Identifier
62044, 2024-216N
Orbit
LEO
Last TLE update9 hours ago
Origin
Flag of USSpaceX/Seattle (US)
ManufacturerSpaceX/Seattle
MissionOperational spacecraft
Bus & MotorSTARLINK V2M, Unknown motor
Mass730 kg wet, ~700 kg dry
Launch date (UTC)
2024-11-21 (3 weeks ago)
Launch vehicle
FALCON 9
Launch site
Air Force Eastern Test Range (AFETR)
Object type
Payload
Rocket body
Debris
Shape & HBRUnknown
Radar Cross SectionLarge (>1 m²)

Expand to show TLE details & history

TLE from 9 hours ago
0 STARLINK-32577
1 62044U 24216N   24348.50002315 -.00008282  00000-0 -13545-3 0  9991
2 62044  42.9996 307.3679 0001162 277.5160 195.7331 15.50588322  4620
Epoch: 2024-12-13T12:00Z
Definitive object data (Epoch: 2024-12-13T12:00:02Z)
Latitude38.94985°
Longitude165.15076°
Altitude417.999 km
Speed7.666 km/s
True Right ascension04h 31m 17s
True Declination38° 46' 24"
Sunlit
Object was in full shadow at TLE epoch
Visualization TLE readout
Latitude21.11775°
Longitude-161.92585°
Altitude414.988 km
Speed7.665 km/s
Apparent Right ascension07h 15m 21s
Apparent Declination-8° 23' 54"
Sunlit
Object is in full shadow
Visualization observer readout
Local Sidereal Time19:57:19
Azimuth19.382° NNE
Elevation-57.118°
Doppler factor1
Orbital elements
Apogee altitude417.761 km
Perigee altitude416.182 km
Semi-major axis6,795.109 km
Eccentricity0.0001162
Inclination42.9996°
RAAN307.3679°
Arg. of periapsis277.516°
True anomaly195.72949°
Mean anomaly195.7331°
Eccentric anomaly195.73129°
Mean motion3.87479 °/min
BSTAR-0.00013545
Orbital period92.91 mins
Loading maneuver chart data...
Loading historical data...
Loading historical data...
Loading historical data...
Loading historical data...
Loading historical data...
Loading historical data...
Loading historical data...

STARLINK-32577 Visibility forecast

Observer location: undefined°, undefined

Span
Click to sort rows by Start time (UTC) header in descending order
Start Az.
Max El. time (UTC)
Max El. Az.
Max El.
End time (UTC)
End Az.
4 mins2024-12-14 01:41:35.327Z238.97° WSW2024-12-14 01:42:35.327Z219.082° SW41.472°2024-12-14 01:45:35.327Z74.771° E
5 mins2024-12-14 03:18:35.327Z288.288° WNW2024-12-14 03:20:35.327Z358.184° N36.821°2024-12-14 03:23:35.327Z71.771° E
4 mins2024-12-14 04:56:35.327Z296.874° NW2024-12-14 04:58:35.327Z58.433° ENE40.93°2024-12-14 05:00:35.327Z95.188° ESE
4 mins2024-12-14 06:33:35.327Z262.532° W2024-12-14 06:35:35.327Z206.232° SW27.176°2024-12-14 06:37:35.327Z154.906° SSE
|